Погода в Заволжском

Россия / Тверская область     56°53′25″N   35°45′12″E
темп.,
°C
ветер,
м/с
пор.,
м/с
влажн.,
%
обл.,
%
осадки,
мм/ч
давл.,
гПа
погр.,
м
25 июля, вс
вс2500:00+14зюз115679 0.0 101816
03:00+10зсз22755 0.0 101936
06:00+11зсз22717 0.0 101961
09:00+18з234799 0.0 1020361
12:00+22зсз233328 0.0 10202303
15:00+23зсз343399 0.0 10202489
18:00+21с1146100 0.0 1020433
21:00+18ююз2258100 0.0 102126
26 июля, пн
пн2600:00+17юз2362100 0.0 102150
03:00+16зюз1167100 0.0 102211
06:00+16ююз1170100 0.0 102213
09:00+20ююз0157100 0.0 1022285
12:00+24ююз004383 0.0 1023940
15:00+27сз123457 0.0 10212475
18:00+23ссв2347100 0.0 1021228
21:00+18зсз00585 0.0 102211
27 июля, вт
вт2700:00+16зюз116410 0.0 102211
03:00+15з22775 0.0 102313
06:00+16з11760 0.0 102323
09:00+23зюз12500 0.0 1022447
12:00+27з22360 0.0 10212250
15:00+28з2234100 0.0 10192363
18:00+27зюз234111 0.0 1019688
21:00+20зюз226214 0.0 101819
28 июля, ср
ср2800:00+18зюз227414 0.0 101811
03:00+16ююз22771 0.0 101826
06:00+17ю258018 0.0 1016121
09:00+23ю355597 0.0 1015560
12:00+25ююз5752100 0.0 10131283
15:00+21ююз5871100 0.8 1013784
18:00+20ю61071100 0.0 1011986
21:00+17юв3790100 0.1 1009557
29 июля, чт
чт2900:00+17вюв2491100 0.0 1007419
03:00+16ссз1193100 0.0 1006158
06:00+17ссв2390100 0.0 1005268
09:00+19ссз237660 0.0 1005606
12:00+24сз245157 0.0 10051392
15:00+28зсз343922 0.0 10032155
18:00+26з565099 0.0 10031468
21:00+19з41078100 0.1 1004465